| time (UTC) | temp F | wind direction | speed MPH | gust MPH | rain 1hr in | rain 24hr in | rain mn in | humidity % | barometer mb |
| 20260507113015 | 48 | 270 | 4.0 | 9.0 | 0.00 | 0.30 | 0.13 | 91 | 1016.9 |
| 20260507112035 | 49 | 270 | 4.0 | 10.0 | 0.00 | 0.30 | 0.13 | 92 | 1016.9 |
| 20260507111015 | 49 | 293 | 3.0 | 8.0 | 0.00 | 0.30 | 0.13 | 93 | 1016.8 |
| 20260507110015 | 49 | 270 | 3.0 | 7.0 | 0.00 | 0.30 | 0.13 | 93 | 1016.7 |
| 20260507105015 | 49 | 270 | 3.0 | 12.0 | 0.00 | 0.30 | 0.13 | 93 | 1016.8 |
| 20260507104016 | 49 | 270 | 3.0 | 8.0 | 0.01 | 0.30 | 0.13 | 94 | 1016.7 |
| 20260507103015 | 49 | 293 | 2.0 | 9.0 | 0.01 | 0.30 | 0.13 | 95 | 1016.7 |
| 20260507102015 | 48 | 270 | 3.0 | 6.0 | 0.01 | 0.30 | 0.13 | 95 | 1016.7 |
| 20260507093515 | 48 | 248 | 2.0 | 6.0 | 0.02 | 0.29 | 0.12 | 95 | 1016.3 |
| 20260507092517 | 48 | 293 | 1.0 | 3.0 | 0.02 | 0.29 | 0.12 | 96 | 1016.3 |
| 20260507083557 | 47 | 270 | 2.0 | 7.0 | 0.03 | 0.28 | 0.10 | 95 | 1015.7 |
| 20260507082517 | 47 | 338 | 2.0 | 4.0 | 0.02 | 0.27 | 0.09 | 95 | 1015.5 |
| 20260507072017 | 47 | 270 | 2.0 | 6.0 | 0.02 | 0.24 | 0.07 | 96 | 1014.8 |
| 20260507071016 | 47 | 338 | 3.0 | 9.0 | 0.02 | 0.24 | 0.07 | 96 | 1014.6 |
| 20260507062016 | 48 | 270 | 2.0 | 7.0 | 0.01 | 0.23 | 0.06 | 96 | 1014.3 |
| 20260507061037 | 48 | 270 | 2.0 | 7.0 | 0.01 | 0.23 | 0.06 | 96 | 1014.0 |
| 20260507052016 | 48 | 270 | 3.0 | 8.0 | 0.01 | 0.22 | 0.05 | 97 | 1013.4 |
| 20260507051017 | 48 | 270 | 3.0 | 8.0 | 0.01 | 0.22 | 0.05 | 97 | 1013.2 |
| 20260506182116 | 52 | 270 | 1.0 | 3.0 | 0.00 | 0.15 | 0.15 | 94 | 1009.9 |
| 20260506181017 | 52 | 270 | 2.0 | 7.0 | 0.00 | 0.15 | 0.15 | 95 | 1009.8 |
| 20260506172015 | 53 | 0 | 1.0 | 3.0 | 0.03 | 0.15 | 0.15 | 94 | 1009.1 |
| 20260506171015 | 53 | 338 | 1.0 | 3.0 | 0.11 | 0.15 | 0.15 | 94 | 1009.0 |
| 20260506162015 | 55 | 270 | 2.0 | 12.0 | 0.11 | 0.12 | 0.12 | 88 | 1008.7 |
| 20260506161015 | 57 | 270 | 3.0 | 6.0 | 0.03 | 0.04 | 0.04 | 87 | 1009.0 |
| 20260506150015 | 62 | 270 | 1.0 | 2.0 | 0.00 | 0.01 | 0.01 | 70 | 1008.4 |
| 20260506145025 | 62 | 270 | 1.0 | 3.0 | 0.00 | 0.02 | 0.01 | 71 | 1008.6 |
| 20260506140536 | 62 | 270 | 1.0 | 3.0 | 0.00 | 0.06 | 0.01 | 69 | 1008.4 |
| 20260506135515 | 63 | 0.0 | 2.0 | 0.00 | 0.06 | 0.01 | 70 | 1008.4 | |
| 20260506130515 | 63 | 0.0 | 1.0 | 0.00 | 0.06 | 0.01 | 69 | 1008.3 | |
| 20260506130015 | 63 | 225 | 1.0 | 1.0 | 0.00 | 0.06 | 0.01 | 70 | 1008.5 |